Location: Navalespino
(40.5894°N, 4.2660°W)
Time: 06:12:38
(UTC+00:00)

Resurs 01 Rocket - Pass Details

Date: 18 April 2024
Orbit: 631 x 640 km, 97.8° (Epoch: 22 May)

Event Time Altitude Azimuth Distance (km) Brightness Sun altitude
Exits shadow 19:39:07 - 141° (SE) 2,318 4.0 -7.9°
Reaches altitude 10° 19:39:55 10° 137° (SE) 2,018 3.6 -8.0°
Maximum altitude 19:43:56 36° 71° (ENE) 1,005 2.3 -8.7°
Drops below altitude 10° 19:48:00 10° 5° (N) 2,037 4.5 -9.4°
Sets 19:50:20 0° 357° (N) 2,952 5.4 -9.8°
